Αρχική σελίδα
METAR-TAF:

METAR-TAF

Αεροδρόμια :

Davis, Καλιφόρνια, Ηνωμένες Πολιτείες Αμερικής

γεωγραφικό πλάτος: 38-31-53N, γεωγραφικό μήκος: 121-47-11W, υψόμετρο: 21 μ

Παρών καιρός

Η αναφορά έγινε 13 λεπτά πριν, στις 18:35 UTC
Ήπιος άνεμος
Θερμοκρασία 10°C
Υγρασία 50%
Πίεση 1020 hPa
Ορατότητα: 2.8 χλμ
Διάσπαρτα νέφη σε ύψος 12000 πόδια

METAR: KEDU 181835Z AUTO 00000KT 1 3/4SM SCT120 10/00 A3013 RMK AO1

Χρόνος: 10:48 (18:48 UTC)


TAF: λείπει

Μετεωρολογικές αναφορές και προγνώσεις για περισσότερα από 4000 αεροδρόμια (δελτία METAR και TAF).

Οι διαθέσιμοι σταθμοί απεικονίζονται στο χάρτη με κίτρινες και κόκκινες κουκκίδες.

Μετακινήστε το ποντίκι πάνω από τις κουκκίδες για να δείτε το όνομα του σταθμού.

Στη συνέχεια, κάντε κλικ για να δείτε τις μετεωρολογικές αναφορές και τις προγνώσεις καιρού.

Για να αλλάξετε το χάρτη: κάντε κλικ στα πράσινα κουμπιά με τον μαύρο σταυρό για να ζουμάρετε, στο πράσινο κουμπί με την παύλα για να αφαιρέσετε το ζουμ ή στα πράσινα βέλη για να αντιπαραβάλλετε χάρτες.


METAR-TAF: